Total_Precipitation_Accumulation
0.00 0.00 0.00 0.00 0.00 0.00 0.00 0.00 0.00 0.00 0.00 0.00 0.00 0.00 0.00 0.00 0.00 0.00 0.00 0.00 0.00 0.00 0.00 0.00 0.00 0.00 0.00 0.00 0.00 0.00 0.00 0.00 0.00 0.00 0.00 0.00 0.00 0.00 0.00 0.00 0.00 0.00 0.00 0.00 0.00 0.00 0.00
0.00 0.00 0.00 0.00 0.00 0.00 0.00 0.00 0.00 0.00 0.00 0.00 0.00 0.00 0.00 0.00 0.00 0.00 0.00 0.00 0.00 0.00 0.00 0.00 0.00 0.00 0.00 0.00 0.00 0.00 0.00 0.00 0.00 0.00 0.00 0.00 0.00 0.00 0.00 0.00 0.00 0.00 0.00 0.00 0.00 0.00 0.00
0.00 0.00 0.00 0.00 0.00 0.00 0.00 0.00 0.00 0.00 0.00 0.00 0.00 0.00 0.00 0.00 0.00 0.00 0.00 0.00 0.00 0.00 0.00 0.00 0.00 0.00 0.00 0.00 0.00 0.00 0.00 0.00 0.00 0.00 0.00 0.00 0.00 0.00 0.00 0.00 0.00 0.00 0.00 0.00 0.00 0.00 0.00
0.00 0.00 0.00 0.00 0.00 0.00 0.00 0.00 0.00 0.00 0.00 0.00 0.00 0.00 0.00 0.00 0.00 0.00 0.00 0.00 0.00 0.00 0.00 0.00 0.00 0.00 0.00 0.00 0.00 0.00 0.00 0.00 0.00 0.00 0.00 0.00 0.00 0.00 0.00 0.00 0.00 0.00 0.00 0.00 0.00 0.00 0.00
0.00 0.00 0.00 0.00 0.00 0.00 0.00 0.00 0.00 0.00 0.00 0.00 0.00 0.00 0.00 0.00 0.00 0.00 0.00 0.00 0.00 0.00 0.00 0.00 0.00 0.00 0.00 0.00 0.00 0.00 0.00 0.00 0.00 0.00 0.00 0.00 0.00 0.00 0.00 0.00 0.00 0.00 0.00 0.00 0.00 0.00 0.00
0.00 0.00 0.00 0.00 0.00 0.00 0.00 0.00 0.00 0.00 0.00 0.00 0.00 0.00 0.00 0.00 0.00 0.00 0.00 0.00 0.00 0.00 0.00 0.00 0.00 0.00 0.00 0.00 0.00 0.00 0.00 0.00 0.00 0.00 0.00 0.00 0.00 0.00 0.00 0.00 0.00 0.00 0.00 0.00 0.00 0.00 0.00
0.00 0.00 0.00 0.00 0.00 0.00 0.00 0.00 0.00 0.00 0.00 0.00 0.00 0.00 0.00 0.00 0.00 0.00 0.00 0.00 0.00 0.00 0.00 0.00 0.00 0.00 0.00 0.00 0.00 0.00 0.00 0.00 0.00 0.00 0.00 0.00 0.00 0.00 0.00 0.00 0.00 0.00 0.00 0.00 0.00 0.00 0.00
0.00 0.00 0.00 0.00 0.00 0.00 0.00 0.00 0.00 0.00 0.00 0.00 0.00 0.00 0.00 0.00 0.00 0.00 0.00 0.00 0.00 0.00 0.00 0.00 0.00 0.00 0.00 0.00 0.00 0.00 0.00 0.00 0.00 0.00 0.00 0.00 0.00 0.00 0.00 0.00 0.00 0.00 0.00 0.00 0.00 0.00 0.00
0.00 0.00 0.00 0.00 0.00 0.00 0.00 0.00 0.00 0.00 0.00 0.00 0.00 0.00 0.00 0.00 0.00 0.00 0.00 0.00 0.00 0.00 0.00 0.00 0.00 0.00 0.00 0.00 0.00 0.00 0.00 0.00 0.00 0.00 0.00 0.00 0.00 0.00 0.00 0.00 0.00 0.00 0.00 0.00 0.00 0.00 0.00
0.06 0.03 0.01 0.00 0.00 0.00 0.00 0.00 0.00 0.00 0.00 0.00 0.00 0.00 0.00 0.00 0.00 0.00 0.00 0.00 0.00 0.00 0.00 0.00 0.00 0.00 0.00 0.00 0.00 0.00 0.00 0.00 0.00 0.00 0.00 0.00 0.00 0.00 0.00 0.00 0.00 0.00 0.00 0.00 0.00 0.00 0.00
0.10 0.08 0.06 0.05 0.04 0.02 0.01 0.00 0.00 0.00 0.00 0.00 0.00 0.00 0.00 0.00 0.00 0.00 0.00 0.00 0.00 0.00 0.00 0.00 0.00 0.00 0.00 0.00 0.00 0.00 0.00 0.00 0.00 0.00 0.00 0.00 0.00 0.00 0.00 0.00 0.00 0.00 0.00 0.00 0.00 0.00 0.00
0.19 0.16 0.15 0.12 0.10 0.06 0.04 0.03 0.03 0.02 0.02 0.01 0.02 0.03 0.02 0.00 0.00 0.00 0.00 0.00 0.00 0.00 0.00 0.00 0.00 0.00 0.00 0.00 0.00 0.00 0.00 0.00 0.00 0.00 0.00 0.00 0.00 0.00 0.00 0.00 0.00 0.00 0.00 0.00 0.00 0.00 0.00
0.18 0.18 0.19 0.19 0.18 0.15 0.10 0.07 0.05 0.04 0.03 0.02 0.02 0.06 0.05 0.00 0.00 0.00 0.00 0.00 0.00 0.00 0.00 0.00 0.00 0.00 0.00 0.00 0.00 0.00 0.00 0.00 0.00 0.00 0.00 0.00 0.00 0.00 0.00 0.00 0.00 0.00 0.00 0.00 0.00 0.00 0.00
0.08 0.12 0.16 0.16 0.17 0.19 0.21 0.19 0.17 0.14 0.10 0.07 0.04 0.05 0.06 0.00 0.00 0.00 0.00 0.00 0.00 0.00 0.00 0.00 0.00 0.00 0.00 0.00 0.00 0.00 0.00 0.00 0.00 0.00 0.00 0.00 0.00 0.00 0.00 0.00 0.00 0.00 0.00 0.00 0.00 0.00 0.00
0.06 0.04 0.03 0.05 0.08 0.10 0.11 0.14 0.18 0.21 0.21 0.19 0.18 0.09 0.06 0.02 0.01 0.00 0.00 0.01 0.00 0.00 0.00 0.00 0.00 0.00 0.00 0.00 0.00 0.00 0.00 0.00 0.00 0.00 0.00 0.00 0.00 0.00 0.00 0.00 0.00 0.00 0.00 0.00 0.00 0.00 0.00
0.08 0.07 0.04 0.02 0.01 0.02 0.01 0.02 0.04 0.08 0.13 0.16 0.11 0.16 0.17 0.07 0.06 0.09 0.14 0.10 0.01 0.00 0.00 0.00 0.00 0.00 0.00 0.00 0.00 0.00 0.00 0.00 0.00 0.00 0.00 0.00 0.00 0.00 0.00 0.00 0.00 0.00 0.00 0.00 0.00 0.00 0.00
0.13 0.12 0.12 0.10 0.07 0.03 0.02 0.01 0.00 0.02 0.07 0.13 0.07 0.06 0.06 0.07 0.16 0.39 0.31 0.09 0.01 0.00 0.00 0.00 0.00 0.01 0.01 0.02 0.01 0.01 0.01 0.00 0.00 0.00 0.00 0.00 0.00 0.00 0.00 0.00 0.00 0.00 0.00 0.00 0.00 0.00 0.00
0.13 0.13 0.14 0.17 0.18 0.11 0.05 0.05 0.05 0.05 0.09 0.17 0.16 0.09 0.03 0.08 0.26 0.20 0.12 0.05 0.04 0.01 0.00 0.00 0.01 0.02 0.03 0.05 0.06 0.04 0.01 0.00 0.00 0.00 0.00 0.00 0.00 0.00 0.00 0.00 0.00 0.00 0.00 0.00 0.00 0.00 0.00
0.13 0.14 0.16 0.18 0.21 0.22 0.15 0.11 0.10 0.12 0.20 0.28 0.29 0.17 0.03 0.07 0.25 0.20 0.12 0.05 0.03 0.03 0.03 0.05 0.05 0.04 0.03 0.05 0.08 0.02 0.01 0.00 0.00 0.00 0.00 0.00 0.00 0.01 0.00 0.00 0.00 0.00 0.00 0.00 0.00 0.00 0.01
0.13 0.11 0.14 0.18 0.20 0.17 0.18 0.14 0.10 0.13 0.23 0.46 0.47 0.27 0.17 0.14 0.09 0.09 0.11 0.09 0.05 0.04 0.06 0.08 0.08 0.05 0.07 0.07 0.05 0.07 0.04 0.00 0.00 0.00 0.00 0.02 0.05 0.01 0.00 0.00 0.00 0.00 0.00 0.00 0.00 0.03 0.01
0.06 0.08 0.11 0.15 0.19 0.18 0.14 0.11 0.09 0.09 0.20 0.51 0.55 0.34 0.11 0.08 0.07 0.07 0.09 0.11 0.06 0.05 0.04 0.03 0.04 0.02 0.03 0.08 0.10 0.11 0.10 0.07 0.05 0.03 0.05 0.10 0.12 0.01 0.00 0.00 0.00 0.00 0.00 0.00 0.01 0.01 0.05
0.07 0.04 0.04 0.06 0.11 0.15 0.18 0.17 0.12 0.09 0.20 0.58 0.45 0.33 0.20 0.11 0.03 0.05 0.09 0.08 0.05 0.04 0.05 0.06 0.09 0.07 0.10 0.11 0.06 0.02 0.03 0.04 0.02 0.01 0.04 0.09 0.16 0.05 0.02 0.00 0.00 0.00 0.00 0.01 0.02 0.01 0.01
0.09 0.08 0.04 0.03 0.03 0.06 0.10 0.13 0.12 0.12 0.27 0.34 0.23 0.18 0.31 0.33 0.16 0.12 0.06 0.02 0.00 0.01 0.08 0.06 0.01 0.02 0.04 0.02 0.01 0.02 0.04 0.05 0.06 0.04 0.06 0.12 0.11 0.07 0.03 0.00 0.00 0.01 0.00 0.00 0.00 0.00 0.00
0.12 0.12 0.10 0.07 0.06 0.07 0.07 0.09 0.12 0.12 0.22 0.31 0.21 0.21 0.38 0.53 0.28 0.12 0.02 0.01 0.01 0.00 0.01 0.01 0.00 0.02 0.01 0.00 0.01 0.00 0.00 0.00 0.02 0.02 0.03 0.12 0.17 0.25 0.12 0.06 0.08 0.00 0.00 0.00 0.00 0.00 0.00
0.10 0.10 0.10 0.10 0.08 0.07 0.08 0.09 0.10 0.12 0.17 0.30 0.33 0.44 0.55 0.48 0.19 0.09 0.06 0.07 0.06 0.04 0.07 0.05 0.01 0.00 0.00 0.01 0.05 0.06 0.02 0.00 0.00 0.00 0.00 0.01 0.10 0.28 0.25 0.15 0.04 0.00 0.00 0.00 0.00 0.00 0.00
0.11 0.09 0.07 0.07 0.06 0.08 0.10 0.14 0.13 0.14 0.18 0.30 0.29 0.35 0.84 0.94 0.36 0.05 0.06 0.04 0.07 0.08 0.08 0.06 0.02 0.03 0.06 0.10 0.17 0.13 0.02 0.00 0.00 0.00 0.00 0.01 0.06 0.29 0.37 0.26 0.06 0.00 0.00 0.00 0.00 0.01 0.00
0.08 0.11 0.11 0.10 0.08 0.07 0.07 0.09 0.15 0.17 0.17 0.31 0.34 0.22 0.65 1.08 0.47 0.06 0.15 0.10 0.03 0.04 0.12 0.05 0.02 0.05 0.13 0.30 0.42 0.23 0.07 0.00 0.00 0.00 0.00 0.01 0.06 0.20 0.24 0.40 0.21 0.01 0.00 0.01 0.06 0.02 0.00
0.10 0.10 0.11 0.09 0.06 0.06 0.06 0.08 0.12 0.18 0.23 0.38 0.34 0.16 0.43 0.82 0.42 0.09 0.09 0.14 0.10 0.06 0.12 0.09 0.21 0.31 0.35 0.53 0.44 0.29 0.18 0.03 0.02 0.00 0.00 0.00 0.02 0.05 0.08 0.19 0.11 0.00 0.00 0.00 0.00 0.00 0.00
0.09 0.10 0.11 0.08 0.07 0.05 0.05 0.06 0.09 0.17 0.34 0.67 0.65 0.23 0.29 0.76 0.71 0.13 0.03 0.04 0.09 0.15 0.22 0.30 0.22 0.11 0.21 0.33 0.32 0.27 0.31 0.20 0.06 0.02 0.00 0.00 0.01 0.00 0.00 0.01 0.00 0.00 0.00 0.00 0.00 0.00 0.00